Theta_e
326 327 327 328 327 326 325 324 323 323 324 324 323 320 319 320 317 311 306 302 300 298 297 295 294 295 301 302 302 301 297 292 290 291 293 292 292 291 291 291 290 290 290
325 326 326 326 326 326 324 322 321 317 315 315 313 315 317 309 304 300 296 296 296 298 295 297 299 300 301 299 297 292 291 294 293 290 293 291 292 296 297 292 292 292 292
326 324 323 324 321 319 315 313 310 311 308 307 304 304 302 299 297 297 297 296 296 298 299 299 299 299 298 295 293 294 291 290 292 292 294 295 293 291 292 293 294 295 294
319 316 315 313 311 310 308 307 307 306 306 305 301 300 300 299 298 298 299 300 300 300 298 298 294 290 291 292 293 295 294 294 294 293 291 290 290 292 291 291 291 290 290
310 310 307 305 305 304 304 302 300 299 299 298 297 297 297 297 297 297 298 297 297 296 295 294 294 294 293 292 292 293 292 291 290 290 290 289 288 287 286 286 286 286 287
304 301 302 301 301 300 300 299 299 298 298 298 297 297 297 297 296 296 296 296 295 294 294 293 293 293 292 290 289 288 287 286 286 286 285 285 285 285 284 284 284 284 284
300 300 300 300 299 298 298 298 298 297 297 296 295 295 294 293 293 294 294 293 291 290 288 286 285 284 284 283 283 282 281 281 282 283 283 283 283 283 283 283 284 284 284
298 298 298 298 298 297 297 296 295 296 295 293 292 292 289 286 285 286 285 284 283 282 281 281 280 280 280 279 279 279 279 279 279 279 279 280 280 281 282 282 282 281 281
297 297 296 296 297 296 296 294 290 289 288 286 285 284 284 281 280 281 282 281 280 280 279 279 279 279 279 279 279 278 278 278 279 278 277 277 277 276 275 275 278 278 279
289 288 289 289 289 288 287 287 286 285 284 283 282 281 280 280 279 280 280 280 280 279 279 279 279 279 279 278 278 277 277 277 276 276 276 276 275 274 273 272 272 272 272
287 287 287 286 286 284 283 283 282 282 281 280 280 279 279 279 278 278 278 279 278 278 279 279 278 278 277 277 276 275 274 273 274 274 273 273 272 271 270 269 270 269 269
285 285 284 282 281 281 281 280 280 279 279 279 279 279 279 278 278 278 278 278 278 277 277 277 276 276 276 276 275 273 272 272 271 271 270 269 268 268 268 268 267 267 268
283 282 281 281 280 280 280 280 279 279 279 278 278 278 278 278 278 278 277 277 277 276 276 275 275 275 275 274 273 272 271 270 269 269 268 267 266 266 266 267 267 268 269
281 280 280 280 279 279 279 278 278 278 278 277 277 277 277 277 276 276 276 276 276 276 275 274 274 273 273 272 271 270 268 267 266 265 265 265 265 264 264 264 265 266 266
279 279 278 278 278 278 277 277 277 276 276 276 276 275 275 275 274 274 273 274 273 273 273 273 273 271 270 268 267 266 266 265 265 264 263 263 263 263 263 263 264 265 266
279 278 278 277 277 277 277 277 276 276 276 275 275 275 274 273 272 273 273 273 272 271 271 271 270 268 267 267 266 266 266 266 265 265 265 264 263 262 262 263 263 263 264
278 277 277 277 277 276 276 276 276 275 275 274 274 273 273 273 272 272 272 272 272 272 272 271 269 268 267 266 266 266 266 266 265 264 264 264 263 262 261 262 262 263 263
277 276 276 276 276 275 275 275 274 274 274 274 273 273 273 273 273 272 272 273 274 273 271 270 269 267 266 266 265 265 265 265 265 264 264 263 263 262 262 261 262 262 263
276 275 275 275 275 274 274 273 273 273 273 273 273 273 273 273 273 273 272 272 271 270 269 268 267 265 265 265 264 264 264 264 263 263 263 263 262 262 262 262 262 263 263
275 275 275 275 274 274 273 273 273 273 273 273 273 272 273 273 273 273 272 270 269 268 267 266 265 264 264 264 264 264 264 264 263 263 263 262 262 263 262 262 263 263 263
275 275 274 274 274 273 273 273 273 273 272 272 272 271 270 270 270 270 270 269 267 267 265 264 263 263 263 263 263 263 263 263 263 263 263 262 262 263 263 263 263 264 263
275 275 275 274 274 273 273 272 272 272 272 271 271 271 270 270 270 269 268 267 265 264 263 262 262 262 262 262 262 262 262 263 263 263 263 263 263 264 264 264 263 263 264
275 275 274 274 273 273 272 272 272 271 271 271 270 270 270 270 269 268 267 265 264 263 262 261 261 262 262 262 262 262 262 263 263 263 262 263 264 264 264 263 263 264 264
274 274 273 273 273 272 272 272 271 271 271 270 270 270 270 269 267 266 265 264 263 262 261 261 262 262 261 262 262 263 263 263 264 263 264 264 264 264 264 264 264 264 264
273 273 273 272 272 272 272 271 271 270 270 270 269 269 268 267 266 265 264 262 261 261 261 261 261 261 262 262 263 263 264 264 264 264 265 264 265 265 264 264 264 264 264
273 273 272 272 272 271 271 271 270 270 270 269 269 268 266 265 264 263 263 262 261 261 261 262 262 262 262 263 263 264 264 264 264 265 265 265 265 265 265 265 265 264 264
Wind_Speed
20 22 26 30 30 31 34 37 39 43 41 43 36 28 32 37 37 33 30 28 22 20 17 17 17 15 16 24 31 26 14 21 30 34 36 35 37 36 36 38 39 41 43
14 20 22 24 26 28 30 33 36 32 30 27 22 25 30 29 25 21 15 14 15 17 14 20 23 17 21 15 13 16 19 23 31 39 42 41 41 43 44 43 43 44 46
10 12 15 15 13 13 12 13 13 12 11 11 10 12 12 10 6 5 6 7 9 9 6 7 13 14 11 14 17 21 23 26 31 40 49 47 47 44 45 46 47 47 48
6 6 7 9 9 10 12 12 13 10 10 8 7 7 5 2 3 6 7 8 8 10 11 10 11 13 15 20 23 27 31 34 35 36 42 45 45 46 46 48 52 49 52
24 22 25 24 23 23 22 21 21 20 20 19 17 16 14 10 8 5 5 6 7 8 10 11 13 16 18 20 22 24 25 28 32 36 41 45 46 45 42 44 49 52 56
37 36 32 30 28 27 25 25 23 22 21 18 17 14 12 11 9 8 8 9 9 9 9 10 11 14 17 19 19 20 22 24 28 31 35 39 43 40 42 43 46 48 55
38 34 31 28 28 26 24 23 23 22 20 19 17 16 17 16 13 11 12 12 13 13 14 14 14 16 19 22 23 24 25 25 23 25 32 36 43 44 47 52 50 49 55
35 32 29 26 26 24 23 24 23 21 20 19 18 18 18 20 19 16 15 15 15 16 17 19 20 21 23 27 28 30 29 30 29 30 31 36 37 37 39 44 50 53 57
35 32 28 26 25 23 23 22 23 21 21 22 22 20 22 24 24 22 19 20 20 22 23 24 25 26 28 31 33 35 35 35 35 36 38 40 41 41 40 40 42 40 43
34 33 30 28 27 27 25 24 23 22 22 21 21 22 22 22 24 25 24 23 23 25 25 27 28 30 31 33 35 36 37 39 43 44 44 43 42 42 41 35 37 44 51
30 29 28 28 27 26 24 23 22 21 20 21 21 21 23 24 26 26 26 27 28 28 29 30 31 33 34 35 35 34 33 39 42 44 46 48 47 46 44 41 37 36 43
27 26 27 27 26 24 24 24 24 24 24 25 24 24 24 24 23 23 25 26 28 30 32 33 34 36 36 36 36 36 36 40 43 46 47 49 49 48 46 43 40 38 36
25 27 27 25 26 26 25 25 25 25 25 26 26 25 25 25 25 25 27 29 31 31 33 34 35 36 37 37 36 37 39 41 43 45 46 47 46 47 47 45 40 33 31
25 27 26 26 26 26 26 26 26 27 27 26 26 26 25 26 28 30 32 34 34 35 36 36 36 36 36 37 39 39 41 41 41 41 42 44 45 46 47 42 41 37 36
26 27 28 27 27 27 27 27 26 25 24 24 26 26 27 27 29 30 31 35 37 37 39 39 40 41 43 42 42 41 41 41 41 41 43 44 45 45 47 42 38 37 34
25 26 26 25 24 24 23 22 22 22 22 23 24 26 27 25 28 33 35 38 40 41 41 44 43 42 42 42 43 43 43 42 42 42 43 44 47 47 47 44 40 39 36
23 23 22 21 22 22 22 22 21 22 23 24 26 27 30 31 33 37 40 42 43 45 47 45 42 41 41 41 42 42 43 41 40 40 41 43 46 46 44 44 42 37 41
21 22 22 23 23 23 23 23 22 23 24 25 26 30 33 35 38 41 45 47 49 47 45 44 42 41 40 40 40 40 40 39 38 39 41 42 44 44 43 42 41 41 41
20 21 22 23 23 24 24 24 25 28 31 33 34 36 40 41 42 43 46 48 48 47 44 41 38 36 35 36 36 37 37 37 36 38 40 42 43 41 40 40 38 37 35
17 18 20 22 24 26 26 27 29 31 33 35 38 40 42 45 47 48 48 46 44 43 41 39 36 34 34 34 35 35 35 33 34 37 39 41 41 37 36 35 33 32 32
16 18 20 23 25 27 27 27 30 33 35 36 37 38 40 43 46 47 48 45 42 40 38 36 34 31 30 31 31 31 30 29 32 36 38 40 37 33 30 29 30 31 32
13 16 19 22 24 25 27 28 30 33 36 39 41 42 43 45 47 47 44 41 38 36 33 32 30 28 28 28 28 27 26 27 32 34 37 37 29 26 26 28 29 29 30
10 14 18 21 25 27 29 31 33 36 39 41 43 46 47 48 46 43 40 38 35 34 31 28 27 26 25 25 23 21 23 27 31 31 33 27 22 23 24 27 30 31 30
11 15 20 24 27 30 32 34 36 38 40 42 44 46 46 45 41 38 36 35 33 31 26 23 22 23 24 23 20 15 17 24 26 31 24 18 19 21 23 25 30 32 30
13 18 22 26 29 33 36 37 39 41 42 44 46 47 45 40 37 37 36 34 31 27 22 19 20 22 22 20 15 12 16 20 25 23 15 16 19 22 24 25 27 31 31
15 19 23 27 31 34 37 40 42 42 44 45 45 43 39 37 36 36 35 33 29 22 17 17 19 21 19 16 10 12 18 20 25 13 14 18 21 23 25 25 25 28 32
Wind_Direction
233 229 232 236 237 240 246 253 253 254 250 254 255 250 246 241 241 241 243 243 244 238 238 239 239 242 256 268 267 268 282 290 288 292 292 296 292 290 289 289 288 287 286
225 226 226 231 234 242 249 253 255 254 256 248 239 237 235 234 237 235 232 233 237 247 243 239 248 240 250 273 292 304 295 294 295 294 293 293 292 294 295 293 292 289 288
199 235 223 227 228 241 255 278 297 281 289 271 257 232 239 230 232 251 243 228 224 219 222 250 266 274 284 288 285 286 289 285 284 286 289 293 296 297 297 295 295 292 290
132 123 95 66 62 71 72 73 69 61 68 64 75 86 91 95 164 228 242 239 241 266 268 286 311 318 306 287 284 284 286 287 288 291 293 298 302 305 303 302 301 301 302
94 86 80 79 80 82 82 81 82 83 88 93 98 96 95 93 80 43 360 339 331 326 323 312 307 301 295 293 297 300 301 303 303 303 303 304 306 309 307 308 305 306 302
90 87 85 86 85 84 85 85 87 84 85 84 81 80 75 63 41 25 18 12 5 355 347 338 331 323 319 317 314 312 312 315 312 312 312 309 309 309 309 307 304 303 300
88 86 85 85 84 85 86 85 85 85 86 85 81 73 64 59 48 35 20 12 5 1 1 360 356 348 338 331 324 323 322 323 320 315 312 313 311 314 312 311 305 299 295
88 87 87 87 87 86 83 81 80 78 77 77 69 58 52 54 53 52 43 37 28 23 17 10 3 358 355 347 342 337 335 332 326 318 309 303 301 303 302 300 298 297 294
84 85 85 86 88 87 83 81 78 76 73 66 62 56 49 46 45 45 36 32 29 25 20 13 7 1 357 348 343 339 335 329 324 320 316 313 311 309 308 300 295 308 307
81 82 81 80 80 78 78 75 73 69 66 60 55 50 48 46 43 41 34 30 26 22 17 10 5 358 352 346 341 337 331 329 330 325 322 321 321 321 321 320 310 307 304
82 82 80 77 74 73 74 71 67 65 63 60 56 53 47 43 40 34 30 24 20 14 8 1 356 350 345 343 340 339 337 331 329 328 328 329 330 331 330 325 320 314 308
81 80 80 79 77 75 70 69 65 60 56 54 50 46 43 38 33 27 21 16 8 5 360 355 350 344 341 340 339 339 338 335 337 337 337 338 337 336 334 333 329 321 314
76 73 72 71 70 68 63 61 59 54 49 45 39 34 31 26 20 14 10 6 1 358 354 349 342 339 339 338 340 340 340 341 342 341 340 339 338 337 336 336 333 331 328
73 75 74 71 67 63 59 54 48 44 39 35 30 25 18 14 8 4 0 358 354 351 349 344 339 338 339 340 342 346 349 350 348 345 341 339 339 339 338 339 337 340 333
77 74 70 65 60 56 51 48 42 37 30 25 22 18 12 10 4 1 357 355 352 348 345 341 342 346 346 348 349 350 352 352 350 347 344 342 340 338 337 338 339 338 334
73 71 67 62 58 53 48 43 37 32 26 24 20 16 14 9 1 359 355 353 350 347 345 346 347 346 345 345 346 346 349 349 347 344 344 345 343 341 338 338 337 335 326
73 71 66 61 55 48 41 34 29 26 23 19 17 11 10 4 360 355 351 349 346 343 343 342 340 340 341 341 342 343 343 345 343 344 345 347 346 343 340 338 336 328 327
68 65 58 49 41 35 29 25 21 18 16 13 9 3 360 356 353 348 344 340 338 339 338 337 337 336 336 336 337 339 340 341 342 345 347 348 348 345 341 337 335 331 332
62 56 48 39 31 25 22 19 16 11 8 4 358 356 353 350 345 341 339 338 337 335 333 331 332 331 331 331 334 336 339 340 344 345 347 348 348 344 343 339 336 336 336
54 46 37 27 20 17 13 8 5 2 358 356 354 350 343 341 339 337 334 332 331 330 329 327 329 329 330 332 333 335 337 342 345 346 347 347 344 341 341 340 341 339 340
43 33 25 18 13 9 3 360 357 354 352 349 346 344 340 336 334 332 331 330 328 326 325 324 324 326 328 330 332 333 337 344 345 345 347 346 341 341 345 346 345 344 342
27 17 10 6 4 1 358 354 352 348 346 342 340 339 337 334 332 330 329 328 327 326 324 323 324 327 329 331 332 334 340 344 343 343 347 344 342 349 352 353 351 351 350
3 0 359 359 357 354 352 351 348 344 341 340 339 337 336 334 332 332 332 330 327 324 324 326 325 326 330 333 334 339 340 344 342 348 342 342 352 358 3 1 359 359 359
349 350 352 351 350 349 348 346 343 340 339 338 337 335 334 334 335 334 334 332 329 327 328 328 327 330 332 335 340 347 345 347 351 348 342 353 359 2 3 0 5 5 1
338 344 345 344 345 344 342 340 340 340 339 338 336 336 336 336 337 337 337 334 333 334 337 338 336 335 337 339 342 348 355 356 352 347 1 3 1 1 2 359 2 4 4
333 336 337 339 340 339 338 338 339 339 338 337 336 336 336 338 339 340 339 337 339 345 348 348 345 340 340 342 347 357 0 15 351 3 10 7 6 6 5 4 4 5 7